• In Uzbekistan
  • List of Countries
  • For 7 days
  • Water Temperature
  • Satellite Maps
  • Weather Map
  • Weather Widgets
  • user-avatar
    Login

    Hourly Weather Graz

    Today, 8 December, Thursday

    Time Temperature Precipitation Wind Pressure Humidity
    00:00 0°C° 0 mm 1 mps 737 mmHg 77%
    01:00 0°C° 0 mm 1 mps 737 mmHg 75%
    02:00 0°C° 0 mm 1 mps 737 mmHg 74%
    03:00 0°C° 0 mm 1 mps 736 mmHg 73%
    04:00 0°C° 0 mm 1 mps 736 mmHg 71%
    05:00 0°C° 0 mm 1 mps 736 mmHg 71%
    06:00 0°C° 0 mm 1 mps 736 mmHg 71%
    07:00 0°C° 0 mm 1 mps 735 mmHg 71%
    08:00 +2°C° 0 mm 1 mps 736 mmHg 63%
    09:00 +4°C° 0 mm 1 mps 736 mmHg 56%
    10:00 +6°C° 0 mm 1 mps 736 mmHg 48%
    11:00 +7°C° 0 mm 1 mps 736 mmHg 46%
    12:00 +8°C° 0 mm 1 mps 736 mmHg 45%
    13:00 +9°C° 0 mm 1 mps 736 mmHg 44%
    14:00 +7°C° 0 mm 1 mps 735 mmHg 50%
    15:00 +5°C° 0 mm 1 mps 735 mmHg 56%
    16:00 +3°C° 0 mm 1 mps 734 mmHg 61%
    17:00 +3°C° 0 mm 1 mps 734 mmHg 60%
    18:00 +3°C° 0 mm 1 mps 734 mmHg 58%
    19:00 +3°C° 0 mm 1 mps 734 mmHg 56%
    20:00 +3°C° 0 mm 1 mps 734 mmHg 53%
    21:00 +3°C° 0 mm 1 mps 734 mmHg 50%
    22:00 +4°C° 0 mm 1 mps 734 mmHg 47%
    23:00 +3°C° 0 mm 2 mps 734 mmHg 46%

    Tomorrow, 9 December, Friday

    Time Temperature Precipitation Wind Pressure Humidity
    00:00 +3°C° 0 mm 2 mps 734 mmHg 44%
    01:00 +3°C° 0 mm 2 mps 733 mmHg 43%
    02:00 +2°C° 0 mm 2 mps 733 mmHg 43%
    03:00 +2°C° 0 mm 2 mps 733 mmHg 44%
    04:00 +2°C° 0 mm 2 mps 733 mmHg 44%
    05:00 +2°C° 0 mm 2 mps 733 mmHg 45%
    06:00 +2°C° 0 mm 2 mps 733 mmHg 45%
    07:00 +2°C° 0 mm 2 mps 733 mmHg 46%
    08:00 +3°C° 0 mm 2 mps 734 mmHg 45%
    09:00 +6°C° 0 mm 1 mps 734 mmHg 44%
    10:00 +7°C° 0 mm 1 mps 734 mmHg 43%
    11:00 +8°C° 0 mm 1 mps 734 mmHg 44%
    12:00 +9°C° 0 mm 1 mps 734 mmHg 45%
    13:00 +10°C° 0 mm 1 mps 733 mmHg 46%
    14:00 +8°C° 0 mm 1 mps 733 mmHg 51%
    15:00 +7°C° 0 mm 1 mps 733 mmHg 55%
    16:00 +5°C° 0 mm 1 mps 732 mmHg 59%
    17:00 +4°C° 0 mm 1 mps 732 mmHg 58%
    18:00 +4°C° 0 mm 1 mps 732 mmHg 57%
    19:00 +4°C° 0 mm 1 mps 732 mmHg 57%
    20:00 +4°C° 0 mm 1 mps 732 mmHg 55%
    21:00 +4°C° 0 mm 1 mps 732 mmHg 54%
    22:00 +4°C° 0 mm 1 mps 732 mmHg 52%
    23:00 +4°C° 0 mm 1 mps 732 mmHg 52%

    Day after tomorrow, 10 December, Saturday

    Time Temperature Precipitation Wind Pressure Humidity
    00:00 +3°C° 0 mm 1 mps 732 mmHg 51%
    01:00 +3°C° 0 mm 1 mps 732 mmHg 50%
    02:00 +3°C° 0 mm 1 mps 731 mmHg 49%
    03:00 +3°C° 0 mm 1 mps 731 mmHg 48%
    04:00 +3°C° 0 mm 1 mps 730 mmHg 47%
    05:00 +3°C° 0 mm 1 mps 730 mmHg 47%
    06:00 +3°C° 0 mm 1 mps 730 mmHg 46%
    07:00 +3°C° 0 mm 1 mps 730 mmHg 45%
    08:00 +5°C° 0 mm 1 mps 730 mmHg 44%
    09:00 +7°C° 0 mm 1 mps 730 mmHg 42%
    10:00 +9°C° 0 mm 1 mps 731 mmHg 40%
    11:00 +10°C° 0 mm 1 mps 730 mmHg 41%
    12:00 +11°C° 0 mm 1 mps 730 mmHg 42%
    13:00 +12°C° 0 mm 1 mps 730 mmHg 43%
    14:00 +10°C° 0 mm 1 mps 729 mmHg 45%
    15:00 +8°C° 0 mm 1 mps 729 mmHg 47%
    16:00 +6°C° 0 mm 1 mps 729 mmHg 49%
    17:00 +5°C° 0 mm 1 mps 729 mmHg 50%
    18:00 +5°C° 0 mm 1 mps 729 mmHg 51%
    19:00 +5°C° 0 mm 1 mps 729 mmHg 52%
    20:00 +5°C° 0 mm 1 mps 729 mmHg 52%
    21:00 +5°C° 0 mm 1 mps 728 mmHg 53%
    22:00 +4°C° 0 mm 1 mps 728 mmHg 53%
    23:00 +4°C° 0 mm 1 mps 728 mmHg 52%

    11 December, Sunday

    Time Temperature Precipitation Wind Pressure Humidity
    00:00 +4°C° 0 mm 1 mps 728 mmHg 51%
    01:00 +4°C° 0 mm 1 mps 728 mmHg 49%
    02:00 +4°C° 0 mm 1 mps 727 mmHg 49%
    03:00 +3°C° 0 mm 1 mps 727 mmHg 49%
    04:00 +3°C° 0 mm 1 mps 726 mmHg 49%
    05:00 +3°C° 0 mm 1 mps 726 mmHg 49%
    06:00 +3°C° 0 mm 1 mps 725 mmHg 50%
    07:00 +3°C° 0 mm 1 mps 725 mmHg 50%
    08:00 +5°C° 0 mm 1 mps 725 mmHg 47%
    09:00 +7°C° 0 mm 1 mps 725 mmHg 43%
    10:00 +9°C° 0 mm 1 mps 726 mmHg 39%
    11:00 +9°C° 0 mm 1 mps 725 mmHg 42%
    12:00 +10°C° 0 mm 1 mps 725 mmHg 44%
    13:00 +11°C° 0 mm 1 mps 724 mmHg 46%
    14:00 +9°C° 0 mm 1 mps 724 mmHg 50%
    15:00 +7°C° 0 mm 1 mps 724 mmHg 55%
    16:00 +5°C° 0 mm 1 mps 723 mmHg 60%
    17:00 +4°C° 0 mm 2 mps 724 mmHg 61%
    18:00 +4°C° 0 mm 2 mps 724 mmHg 63%
    19:00 +4°C° 0 mm 2 mps 724 mmHg 64%
    20:00 +4°C° 0 mm 2 mps 725 mmHg 67%
    21:00 +4°C° 0 mm 2 mps 725 mmHg 70%
    22:00 +3°C° 0 mm 2 mps 725 mmHg 73%
    23:00 +3°C° 0 mm 2 mps 726 mmHg 76%

    12 December, Monday

    Time Temperature Precipitation Wind Pressure Humidity
    00:00 +3°C° 0 mm 2 mps 726 mmHg 80%
    01:00 +4°C° 0 mm 1 mps 726 mmHg 83%
    02:00 +4°C° 0 mm 1 mps 726 mmHg 84%
    03:00 +4°C° 0 mm 1 mps 726 mmHg 86%
    04:00 +4°C° 0 mm 1 mps 726 mmHg 87%
    05:00 +4°C° 0 mm 1 mps 726 mmHg 88%
    06:00 +4°C° 0 mm 1 mps 727 mmHg 88%
    07:00 +4°C° 0 mm 1 mps 727 mmHg 88%
    08:00 +4°C° 0 mm 1 mps 727 mmHg 84%
    09:00 +5°C° 0 mm 1 mps 728 mmHg 80%
    10:00 +6°C° 0 mm 1 mps 728 mmHg 76%
    11:00 +6°C° 0 mm 2 mps 728 mmHg 73%
    12:00 +6°C° 0 mm 2 mps 728 mmHg 71%
    13:00 +7°C° 0 mm 2 mps 728 mmHg 68%
    14:00 +7°C° 0 mm 1 mps 728 mmHg 74%
    15:00 +5°C° 0 mm 1 mps 728 mmHg 80%
    16:00 +4°C° 0 mm 1 mps 728 mmHg 86%
    17:00 +4°C° 0 mm 1 mps 728 mmHg 87%
    18:00 +3°C° 0 mm 1 mps 729 mmHg 88%
    19:00 +2°C° 0 mm 2 mps 729 mmHg 89%
    20:00 +2°C° 0 mm 2 mps 729 mmHg 89%
    21:00 +2°C° 0 mm 2 mps 729 mmHg 90%
    22:00 +2°C° 0 mm 2 mps 730 mmHg 90%
    23:00 +1°C° 0 mm 2 mps 730 mmHg 90%

    13 December, Tuesday

    Time Temperature Precipitation Wind Pressure Humidity
    00:00 +1°C° 0 mm 2 mps 730 mmHg 90%
    01:00 +2°C° 0 mm 1 mps 730 mmHg 90%
    02:00 +2°C° 0 mm 1 mps 730 mmHg 90%
    03:00 +2°C° 0 mm 1 mps 730 mmHg 90%
    04:00 +2°C° 0 mm 1 mps 730 mmHg 90%
    05:00 +2°C° 0 mm 1 mps 730 mmHg 90%
    06:00 +2°C° 0 mm 1 mps 730 mmHg 90%
    07:00 +2°C° 0 mm 1 mps 730 mmHg 90%
    08:00 +3°C° 0 mm 1 mps 731 mmHg 84%
    09:00 +3°C° 0 mm 0 mps 731 mmHg 79%
    10:00 +4°C° 0 mm 0 mps 732 mmHg 73%
    11:00 +5°C° 0 mm 0 mps 731 mmHg 72%
    12:00 +6°C° 0 mm 1 mps 731 mmHg 71%
    13:00 +7°C° 0 mm 1 mps 731 mmHg 70%
    14:00 +5°C° 0 mm 1 mps 731 mmHg 78%
    15:00 +4°C° 0 mm 1 mps 731 mmHg 86%
    16:00 +3°C° 0 mm 1 mps 731 mmHg 94%
    17:00 +2°C° 0 mm 1 mps 731 mmHg 95%
    18:00 +2°C° 0 mm 1 mps 731 mmHg 96%
    19:00 +1°C° 0 mm 0 mps 731 mmHg 96%
    20:00 +2°C° 0 mm 1 mps 731 mmHg 96%
    21:00 +2°C° 0 mm 1 mps 731 mmHg 96%
    22:00 +2°C° 0 mm 1 mps 731 mmHg 96%
    23:00 +2°C° 0 mm 1 mps 731 mmHg 96%
    Show more